Weather History for KIKV - January, 2014

Change the Weather History Date:

Wednesday, January 8, 2014

  Actual Average (KDSM) Record (KDSM)
Temperature  
Mean Temperature 6 °F 22 °F  
Max Temperature 10 °F 31 °F 67 °F (2003)
Min Temperature 3 °F 14 °F -17 °F (1886)
Degree Days  
Heating Degree Days 58 43  
Month to date heating degree days 337  
Since 1 July heating degree days 2804  
Cooling Degree Days 0 0  
Month to date cooling degree days 0  
Year to date cooling degree days 0  
Moisture  
Dew Point -1 °F    
Average Humidity 68    
Maximum Humidity 79    
Minimum Humidity 57    
Precipitation  
Precipitation 0.00 in 0.03 in 0.32 in (1937)
Month to date precipitation 0.26  
Year to date precipitation 0.26  
Snow  
Snow 0.00 in 0.20 in 3.50 in (1964)
Month to date snowfall 2.0  
Since 1 July snowfall 13.9  
Snow Depth -    
Sea Level Pressure  
Sea Level Pressure 30.40 in    
Wind  
Wind Speed 4 mph (NE)    
Max Wind Speed 9 mph    
Max Gust Speed -    
Visibility 10 miles    
Events      
T = Trace of Precipitation, MM = Missing Value Source: NWS Daily Summary

Daily Weather History Graph

Daily Weather History Graph

Search for Another Location

Airport or City:

Trip Planner

Search our weather history database for the weather conditions in past years. The results will help you decide how hot, cold, wet, or windy it might be!

Date:

Astronomy

Jan. 08, 2014 Rise Set
Actual Time 7:41 AM CST 5:01 PM CST
Civil Twilight 7:10 AM CST 5:32 PM CST
Nautical Twilight 6:35 AM CST 6:06 PM CST
Astronomical Twilight 6:01 AM CST 6:40 PM CST
Moon 11:56 AM CST (1/8) 12:44 AM CST (1/8)
Length of Visible Light 10h 22m
Length of Day
9h 20m
First Quarter, 56% of the Moon is Illuminated
Jan 8
First Quarter
Jan 15
Full
Jan 23
Last Quarter
Jan 30
New
Feb 6
First Quarter

Hourly Weather History & Observations

Time (CST) Temp. Windchill Dew Point Humidity Pressure Visibility Wind Dir Wind Speed Gust Speed Precip Events Conditions
12:15 AM 5.0 °F -4.1 °F -0.4 °F 78% 30.26 in 10.0 mi North 4.6 mph - N/A   Mostly Cloudy
12:35 AM 5.0 °F -2.1 °F -2.2 °F 72% 30.27 in 10.0 mi North 3.5 mph - N/A   Partly Cloudy
12:55 AM 5.0 °F -4.1 °F -2.2 °F 72% 30.27 in 10.0 mi North 4.6 mph - N/A   Scattered Clouds
1:15 AM 3.2 °F -4.2 °F -2.2 °F 78% 30.27 in 10.0 mi North 3.5 mph - N/A   Overcast
1:35 AM 3.2 °F - -2.2 °F 78% 30.28 in 10.0 mi Calm Calm - N/A   Overcast
1:55 AM 5.0 °F - -0.4 °F 78% 30.29 in 10.0 mi Calm Calm - N/A   Overcast
2:15 AM 5.0 °F - -0.4 °F 78% 30.29 in 10.0 mi Calm Calm - N/A   Overcast
2:35 AM 5.0 °F - -0.4 °F 78% 30.31 in 10.0 mi Calm Calm - N/A   Overcast
2:55 AM 5.0 °F - -0.4 °F 78% 30.31 in 10.0 mi Calm Calm - N/A   Overcast
3:15 AM 5.0 °F - -0.4 °F 78% 30.31 in 10.0 mi Calm Calm - N/A   Overcast
3:35 AM 5.0 °F -2.1 °F -0.4 °F 78% 30.31 in 10.0 mi North 3.5 mph - N/A   Overcast
3:55 AM 6.8 °F -5.9 °F -0.4 °F 72% 30.31 in 10.0 mi North 8.1 mph - N/A   Overcast
4:15 AM 6.8 °F -4.8 °F 1.4 °F 79% 30.32 in 10.0 mi North 6.9 mph - N/A   Overcast
4:35 AM 6.8 °F -4.8 °F 1.4 °F 79% 30.32 in 10.0 mi North 6.9 mph - N/A   Overcast
4:55 AM 6.8 °F -3.5 °F 1.4 °F 79% 30.33 in 10.0 mi North 5.8 mph - N/A   Overcast
5:15 AM 6.8 °F -0.1 °F 1.4 °F 79% 30.34 in 10.0 mi North 3.5 mph - N/A   Overcast
5:35 AM 6.8 °F -3.5 °F 1.4 °F 79% 30.34 in 10.0 mi NNE 5.8 mph - N/A   Overcast
5:55 AM 6.8 °F -4.8 °F 1.4 °F 79% 30.34 in 10.0 mi NNE 6.9 mph - N/A   Overcast
6:15 AM 8.6 °F -2.6 °F 1.4 °F 73% 30.35 in 10.0 mi NNE 6.9 mph - N/A   Overcast
6:35 AM 8.6 °F -2.6 °F 1.4 °F 73% 30.35 in 10.0 mi NNE 6.9 mph - N/A   Overcast
6:55 AM 8.6 °F -1.3 °F 1.4 °F 73% 30.36 in 10.0 mi NNE 5.8 mph - N/A   Mostly Cloudy
7:15 AM 8.6 °F -2.6 °F -0.4 °F 67% 30.37 in 10.0 mi NNE 6.9 mph - N/A   Overcast
7:35 AM 8.6 °F 2.0 °F -0.4 °F 67% 30.37 in 10.0 mi NE 3.5 mph - N/A   Overcast
7:55 AM 6.8 °F -2.0 °F -0.4 °F 72% 30.38 in 10.0 mi NE 4.6 mph - N/A   Overcast
8:15 AM 6.8 °F -3.5 °F -2.2 °F 67% 30.39 in 10.0 mi NE 5.8 mph - N/A   Scattered Clouds
8:35 AM 6.8 °F -4.8 °F -2.2 °F 67% 30.40 in 10.0 mi NNE 6.9 mph - N/A   Clear
8:55 AM 8.6 °F -4.7 °F -2.2 °F 62% 30.41 in 10.0 mi NNE 9.2 mph - N/A   Clear
9:15 AM 8.6 °F -4.7 °F -4.0 °F 57% 30.43 in 10.0 mi NE 9.2 mph - N/A   Clear
9:35 AM 8.6 °F -4.7 °F -2.2 °F 62% 30.44 in 10.0 mi NE 9.2 mph - N/A   Clear
9:55 AM 8.6 °F -4.7 °F -2.2 °F 62% 30.44 in 10.0 mi NE 9.2 mph - N/A   Partly Cloudy
10:15 AM 8.6 °F -2.6 °F -2.2 °F 62% 30.44 in 10.0 mi NE 6.9 mph - N/A   Clear
10:35 AM 8.6 °F -3.7 °F -2.2 °F 62% 30.44 in 10.0 mi NE 8.1 mph - N/A   Clear
10:55 AM 10.4 °F -1.5 °F -2.2 °F 57% 30.45 in 10.0 mi NE 8.1 mph - N/A   Partly Cloudy
11:15 AM 10.4 °F 0.8 °F -2.2 °F 57% 30.44 in 10.0 mi NNE 5.8 mph - N/A   Partly Cloudy
11:35 AM 10.4 °F -1.5 °F -0.4 °F 62% 30.44 in 10.0 mi NNE 8.1 mph - N/A   Clear
11:55 AM 10.4 °F 0.8 °F -0.4 °F 62% 30.44 in 10.0 mi Variable 5.8 mph - N/A   Clear
12:15 PM 10.4 °F -0.4 °F -2.2 °F 57% 30.43 in 10.0 mi Variable 6.9 mph - N/A   Clear
12:35 PM 10.4 °F 2.2 °F -0.4 °F 62% 30.43 in 10.0 mi Variable 4.6 mph - N/A   Clear
12:55 PM 10.4 °F -0.4 °F -0.4 °F 62% 30.42 in 10.0 mi NE 6.9 mph - N/A   Clear
1:15 PM 10.4 °F 0.8 °F -0.4 °F 62% 30.42 in 10.0 mi NE 5.8 mph - N/A   Clear
1:35 PM 10.4 °F 2.2 °F -0.4 °F 62% 30.43 in 10.0 mi NNE 4.6 mph - N/A   Clear
1:55 PM 10.4 °F 0.8 °F -2.2 °F 57% 30.43 in 10.0 mi NE 5.8 mph - N/A   Clear
2:15 PM 10.4 °F 0.8 °F -0.4 °F 62% 30.43 in 10.0 mi Variable 5.8 mph - N/A   Clear
2:35 PM 10.4 °F 2.2 °F -0.4 °F 62% 30.43 in 10.0 mi ENE 4.6 mph - N/A   Clear
2:55 PM 10.4 °F 2.2 °F -0.4 °F 62% 30.43 in 10.0 mi Variable 4.6 mph - N/A   Clear
3:15 PM 10.4 °F 0.8 °F -0.4 °F 62% 30.44 in 10.0 mi NE 5.8 mph - N/A   Clear
3:35 PM 10.4 °F 2.2 °F -0.4 °F 62% 30.44 in 10.0 mi NE 4.6 mph - N/A   Clear
3:55 PM 10.4 °F 2.2 °F -0.4 °F 62% 30.44 in 10.0 mi East 4.6 mph - N/A   Scattered Clouds
4:15 PM 10.4 °F 4.0 °F -0.4 °F 62% 30.44 in 10.0 mi ENE 3.5 mph - N/A   Partly Cloudy
4:35 PM 10.4 °F 4.0 °F -0.4 °F 62% 30.44 in 10.0 mi ENE 3.5 mph - N/A   Mostly Cloudy
4:55 PM 10.4 °F 2.2 °F -0.4 °F 62% 30.44 in 10.0 mi East 4.6 mph - N/A   Overcast
5:15 PM 8.6 °F 2.0 °F -0.4 °F 67% 30.44 in 10.0 mi ESE 3.5 mph - N/A   Overcast
5:35 PM 8.6 °F - -0.4 °F 67% 30.44 in 10.0 mi Calm Calm - N/A   Overcast
5:55 PM 8.6 °F - -0.4 °F 67% 30.45 in 10.0 mi Calm Calm - N/A   Overcast
6:15 PM 8.6 °F - -0.4 °F 67% 30.45 in 10.0 mi Calm Calm - N/A   Overcast
6:35 PM 8.6 °F - -0.4 °F 67% 30.45 in 10.0 mi Calm Calm - N/A   Overcast
6:55 PM 8.6 °F 2.0 °F -0.4 °F 67% 30.46 in 10.0 mi ESE 3.5 mph - N/A   Overcast
7:15 PM 8.6 °F 0.1 °F -0.4 °F 67% 30.46 in 10.0 mi East 4.6 mph - N/A   Overcast
7:35 PM 8.6 °F 2.0 °F -0.4 °F 67% 30.46 in 10.0 mi ESE 3.5 mph - N/A   Overcast
7:55 PM 8.6 °F - -2.2 °F 62% 30.46 in 10.0 mi Calm Calm - N/A   Overcast
8:15 PM 6.8 °F - -2.2 °F 67% 30.46 in 10.0 mi Calm Calm - N/A   Mostly Cloudy
8:35 PM 6.8 °F - -2.2 °F 67% 30.46 in 10.0 mi Calm Calm - N/A   Scattered Clouds
8:55 PM 5.0 °F - -2.2 °F 72% 30.46 in 10.0 mi Calm Calm - N/A   Clear
9:15 PM 5.0 °F - -0.4 °F 78% 30.46 in 10.0 mi Calm Calm - N/A   Scattered Clouds
9:35 PM 5.0 °F - -2.2 °F 72% 30.46 in 10.0 mi Calm Calm - N/A   Overcast
9:55 PM 6.8 °F - -0.4 °F 72% 30.46 in 10.0 mi Calm Calm - N/A   Overcast
10:15 PM 8.6 °F 0.1 °F -0.4 °F 67% 30.46 in 10.0 mi ESE 4.6 mph - N/A   Overcast
10:35 PM 8.6 °F -1.3 °F -0.4 °F 67% 30.45 in 10.0 mi ESE 5.8 mph - N/A   Overcast
10:55 PM 8.6 °F -1.3 °F -0.4 °F 67% 30.45 in 10.0 mi ESE 5.8 mph - N/A   Overcast
11:15 PM 8.6 °F -1.3 °F -0.4 °F 67% 30.45 in - ESE 5.8 mph - N/A   Overcast
11:35 PM 8.6 °F -1.3 °F -0.4 °F 67% 30.44 in 10.0 mi ESE 5.8 mph - N/A   Overcast
11:55 PM 6.8 °F -3.5 °F -2.2 °F 67% 30.44 in 10.0 mi SE 5.8 mph - N/A   Mostly Cloudy